[[{"header":{"parameterUnit":"m.s-1","parameterCategory":1,"la1":30.2991,"la2":30.254,"lo1":-89.0895,"lo2":-89.0444,"dy":0.0017,"dx":0.0017,"nx":28,"ny":28,"refTime":"2023-07-30T21:00:00:Z","depth":0,"parameterNumber":2,"parameterNumberName":"U-component_of_WINDS"},"data":[0,0,0,0,0,0,0,0,0,0,0,0,0,0,0,0,0,0,0,0,0,0,0,0,0,0,0,0,0,0,0,0,0,0,0,0,0,0,0,0,0,0,0,0,0,0,0,0,0,0,0,0,0,0,0,0,0,0,1.5042,1.5042,0,1.509,1.509,1.5091,1.5047,1.5045,1.5043,1.5042,1.5092,1.5095,1.5098,0,0,0,0,0,0,0,0,0,0,0,0,0,1.4911,1.4914,1.5042,1.5042,1.5043,1.509,1.509,1.5091,1.5047,1.5045,1.5043,1.5041,1.5091,1.5094,1.5098,0,0,0,0,0,0,0,0,0,0,0,0,0,1.4965,1.4915,1.5041,1.5027,1.5026,1.5089,1.509,1.5091,1.5048,1.5045,1.5042,1.504,1.509,1.5094,1.5098,1.518,0,0,1.5112,1.5114,0,0,0,0,0,0,0,0,1.4962,1.4969,1.5028,1.5028,1.5027,1.5059,1.5063,1.5121,1.5048,1.5039,1.5042,1.5038,1.5083,1.5088,1.5103,1.5182,1.5184,1.5113,1.5115,1.5117,1.5118,0,0,0,0,0,0,0,1.4958,1.4967,1.5061,1.5029,1.5028,1.5017,1.5022,1.5074,1.5076,1.504,1.5037,1.5043,1.5082,1.5099,1.5104,1.5185,1.5112,1.5116,1.5119,1.5121,1.5331,1.5334,0,0,0,0,0,0,1.4956,1.4964,1.5059,1.5062,1.4987,1.5022,1.5027,1.5052,1.5075,1.5076,1.5045,1.5041,1.5092,1.5099,1.5105,1.5201,1.5117,1.5121,1.5124,1.5328,1.5332,1.5335,0,0,0,0,0,0,1.4953,1.4965,1.5057,1.5012,1.5023,1.5027,1.5055,1.5054,1.507,1.5079,1.5079,1.5062,1.5091,1.5099,1.5161,1.5202,1.5123,1.5127,1.5325,1.5329,1.5333,1.5393,0,0,0,0,0,0,1.495,1.4964,1.4995,1.5013,1.5026,1.5112,1.5058,1.5057,1.5078,1.5073,1.5094,1.5096,1.5089,1.5155,1.5166,1.5207,1.5131,1.5321,1.5327,1.5332,1.5388,1.5399,1.5409,0,0,0,0,0,1.4945,1.5011,1.4997,1.5009,1.5065,1.5115,1.5122,1.5113,1.5082,1.5113,1.5118,1.5095,1.5196,1.5161,1.5173,1.5217,1.5319,1.5325,1.5332,1.5383,1.5397,1.5409,0,0,0,0,0,0,1.4998,1.5013,1.4998,1.5071,1.5092,1.5107,1.5146,1.5128,1.5158,1.5152,1.514,1.5145,1.521,1.522,1.5181,1.5295,1.5252,1.5261,1.5287,1.53,1.5311,1.5307,1.5135,0,0,0,0,0,1.5018,1.5057,1.5068,1.5132,1.5143,1.5143,1.5164,1.5155,1.5176,1.5185,1.5195,1.5217,1.5253,1.5277,1.5311,1.5389,1.5392,1.5424,1.5435,1.5444,1.5452,1.5492,1.5506,1.5356,1.5356,1.5356,0,0,1.506,1.5073,1.5099,1.5143,1.5158,1.5198,1.5151,1.5196,1.5226,1.5192,1.5251,1.5259,1.5282,1.5352,1.5383,1.5361,1.5494,1.5452,1.5459,1.5462,1.55,1.5514,1.5527,1.5361,1.536,1.5359,0,0,1.5157,1.5171,1.5225,1.5241,1.5264,1.5263,1.5276,1.5294,1.5297,1.5356,1.5331,1.5367,1.543,1.5447,1.5464,1.5566,1.5545,1.5578,1.5633,1.5672,1.5684,1.5695,1.573,1.5743,1.5586,1.5586,1.5586,0,1.5206,1.5266,1.5255,1.5301,1.5321,1.5292,1.5346,1.5362,1.5395,1.5409,1.5385,1.5462,1.5476,1.5549,1.5573,1.5589,1.5602,1.5575,1.5683,1.5694,1.5703,1.5737,1.575,1.5589,1.5589,1.5589,1.5588,0,1.5325,1.5367,1.5408,1.5439,1.5464,1.5514,1.551,1.5536,1.5525,1.5526,1.5586,1.5601,1.5637,1.5654,1.5644,1.5725,1.571,1.5685,1.5641,1.5721,1.5753,1.5765,1.5595,1.5593,1.5592,1.5591,0,0,1.5457,1.5481,1.5496,1.5509,1.5532,1.5564,1.5613,1.5647,1.5669,1.5693,1.5733,1.5787,1.5763,1.5782,1.5773,1.5808,1.5887,1.5778,1.5778,1.5797,1.5975,1.5994,1.6009,1.5873,1.5876,1.5878,1.5973,0,1.5554,1.5638,1.5628,1.5708,1.5746,1.5718,1.576,1.5779,1.5781,1.5814,1.5817,1.5855,1.5821,1.5832,1.5865,1.587,1.5922,1.5863,1.591,1.5911,1.5904,1.6026,1.6046,1.6135,1.5985,1.5987,1.5989,0,1.5678,1.5705,1.5789,1.5804,1.582,1.5858,1.5888,1.592,1.5939,1.5939,1.596,1.5945,1.5993,1.5948,1.6014,1.5974,1.5993,1.5998,1.6001,1.6005,1.5955,1.6032,1.6164,1.6177,1.6008,1.6007,1.6005,0,1.5765,1.5822,1.5879,1.5892,1.5912,1.5939,1.5948,1.5965,1.5986,1.6013,1.6026,1.6058,1.6076,1.6101,1.6095,1.6063,1.6162,1.6117,1.6162,1.6162,1.6184,1.6183,1.632,1.6197,1.6197,1.6197,1.6196,0,1.5874,1.5926,1.5918,1.5953,1.601,1.5998,1.6055,1.6061,1.6077,1.6112,1.609,1.6124,1.6114,1.6148,1.6143,1.6198,1.6206,1.6207,1.6205,1.6208,1.6208,1.622,1.6213,1.62,1.62,1.6199,1.6198,0,1.598,1.5977,1.6037,1.605,1.6055,1.6096,1.6107,1.614,1.6141,1.6186,1.6196,1.6197,1.6235,1.6231,1.6274,1.6271,1.6338,1.6329,1.6331,1.6329,1.6374,1.637,1.6524,1.6543,1.6408,1.641,1.6411,0,1.6049,1.6088,1.6105,1.6127,1.6138,1.6174,1.6195,1.6185,1.6207,1.6232,1.6262,1.6297,1.6325,1.6387,1.6392,1.6424,1.6415,1.6467,1.642,1.6422,1.6415,1.6413,1.6416,1.6476,1.6478,1.6479,1.648,0,1.6172,1.6169,1.6199,1.6229,1.6255,1.6278,1.6299,1.6318,1.631,1.6337,1.6375,1.6396,1.6439,1.6475,1.6505,1.6515,1.6496,1.6495,1.6507,1.651,1.6509,1.651,1.6356,1.6491,1.649,1.6489,1.6489,1.6488,1.6262,1.6294,1.6311,1.6346,1.636,1.638,1.6411,1.6415,1.6446,1.648,1.6472,1.6515,1.6533,1.6571,1.6584,1.6617,1.6598,1.6616,1.6621,1.6625,1.663,1.6505,1.6623,1.6622,1.6622,1.6622,1.6622,0,1.6383,1.6392,1.6424,1.6453,1.648,1.6459,1.6481,1.6505,1.6543,1.6561,1.6588,1.6632,1.6666,1.6673,1.6705,1.673,1.6722,1.6739,1.6737,1.6739,1.6645,1.6631,1.6744,1.6744,1.6744,1.6744,1.6744,1.6744,1.6449,1.6503,1.6501,1.6561,1.657,1.6611,1.6625,1.6643,1.6657,1.6706,1.6734,1.6738,1.6751,1.6784,1.6814,1.6815,1.6828,1.6848,1.6846,1.6758,1.6746,1.6734,1.6721,1.6851,1.6851,1.6937,1.6938,1.6938]},{"header":{"parameterUnit":"m.s-1","parameterCategory":1,"la1":30.2991,"la2":30.254,"lo1":-89.0895,"lo2":-89.0444,"dy":0.0017,"dx":0.0017,"nx":28,"ny":28,"refTime":"2023-07-30T21:00:00:Z","depth":0,"parameterNumber":3,"parameterNumberName":"V-component_of_WINDS"},"data":[0,0,0,0,0,0,0,0,0,0,0,0,0,0,0,0,0,0,0,0,0,0,0,0,0,0,0,0,0,0,0,0,0,0,0,0,0,0,0,0,0,0,0,0,0,0,0,0,0,0,0,0,0,0,0,0,0,0,1.2167,1.2167,0,1.2123,1.2122,1.2121,1.2061,1.206,1.2059,1.2058,1.2011,1.2011,1.2011,0,0,0,0,0,0,0,0,0,0,0,0,0,1.22,1.22,1.2167,1.2167,1.2166,1.2123,1.2122,1.2121,1.2061,1.206,1.2059,1.2057,1.2011,1.2011,1.2011,0,0,0,0,0,0,0,0,0,0,0,0,0,1.2174,1.22,1.2168,1.2131,1.2127,1.2123,1.2122,1.2121,1.2061,1.206,1.2058,1.2057,1.2012,1.2011,1.2011,1.2038,0,0,1.2009,1.2009,0,0,0,0,0,0,0,0,1.2175,1.2173,1.2137,1.2133,1.2129,1.2096,1.2116,1.2093,1.2062,1.2086,1.2058,1.2056,1.2041,1.2038,1.2033,1.2036,1.2034,1.2009,1.2009,1.2009,1.2009,0,0,0,0,0,0,0,1.2177,1.2174,1.215,1.2136,1.2132,1.2117,1.2111,1.2112,1.2073,1.2084,1.208,1.2075,1.2038,1.2033,1.2031,1.2033,1.2009,1.2009,1.2009,1.2008,1.2056,1.2057,0,0,0,0,0,0,1.2185,1.2176,1.2151,1.2148,1.2149,1.2117,1.2111,1.2108,1.2072,1.2065,1.2076,1.2073,1.2035,1.2032,1.2029,1.2058,1.2009,1.2008,1.2008,1.2054,1.2056,1.2058,0,0,0,0,0,0,1.2185,1.2183,1.2153,1.2161,1.2156,1.2118,1.2115,1.2108,1.2103,1.2067,1.2059,1.2079,1.2033,1.203,1.2036,1.2056,1.2008,1.2008,1.2053,1.2055,1.2057,1.2117,0,0,0,0,0,0,1.2187,1.2184,1.2194,1.2162,1.2156,1.2161,1.2117,1.2108,1.2102,1.2097,1.2067,1.206,1.2032,1.2037,1.2036,1.2054,1.2007,1.2051,1.2054,1.2056,1.2113,1.2121,1.2128,0,0,0,0,0,1.2188,1.2213,1.2195,1.2192,1.2168,1.2162,1.2159,1.2126,1.2104,1.2114,1.2091,1.2061,1.2054,1.2038,1.2036,1.2055,1.2049,1.2053,1.2056,1.211,1.212,1.2128,0,0,0,0,0,0,1.2248,1.2208,1.2187,1.2202,1.2186,1.2152,1.2164,1.2138,1.2127,1.2123,1.2082,1.2076,1.2087,1.2072,1.2055,1.2079,1.2047,1.205,1.2089,1.2098,1.2105,1.2109,1.2007,0,0,0,0,0,1.2263,1.2262,1.2227,1.2244,1.2237,1.2202,1.2198,1.2174,1.2156,1.2149,1.2126,1.2109,1.2103,1.2099,1.2092,1.2111,1.2103,1.2123,1.213,1.2136,1.214,1.2148,1.2156,1.2069,1.2069,1.2069,0,0,1.2294,1.2272,1.2274,1.2255,1.224,1.224,1.2196,1.2198,1.2197,1.2149,1.2153,1.2136,1.2114,1.2127,1.2132,1.2115,1.2162,1.2141,1.2146,1.2146,1.2152,1.216,1.2168,1.2072,1.2071,1.2071,0,0,1.235,1.2334,1.2346,1.2331,1.2309,1.2285,1.2288,1.2258,1.2244,1.2248,1.2212,1.221,1.2201,1.2186,1.2178,1.2229,1.2201,1.2227,1.2266,1.2274,1.2281,1.2287,1.2304,1.2311,1.223,1.2231,1.2231,0,1.2392,1.239,1.2355,1.2359,1.2351,1.2308,1.2319,1.2306,1.2283,1.2278,1.226,1.2246,1.2229,1.2237,1.2249,1.2244,1.2246,1.223,1.2283,1.2289,1.2293,1.231,1.2316,1.2234,1.2234,1.2233,1.2233,0,1.2442,1.2441,1.2453,1.2431,1.2425,1.2433,1.2399,1.2397,1.2373,1.2352,1.2356,1.2333,1.232,1.232,1.2297,1.2325,1.2315,1.2291,1.2257,1.2306,1.232,1.2326,1.2239,1.2237,1.2236,1.2236,0,0,1.2534,1.2493,1.2498,1.2487,1.2459,1.2458,1.2463,1.245,1.2449,1.2434,1.2437,1.243,1.2407,1.2397,1.2372,1.238,1.242,1.2354,1.2352,1.2366,1.2449,1.2468,1.2475,1.2402,1.2403,1.2404,1.2451,0,1.2585,1.2592,1.256,1.2576,1.2574,1.2533,1.2537,1.252,1.25,1.2496,1.2473,1.2469,1.2439,1.2432,1.2438,1.2414,1.2436,1.2411,1.2404,1.2404,1.241,1.2483,1.2503,1.2548,1.2456,1.2457,1.2458,0,1.2645,1.2633,1.2648,1.2619,1.2617,1.2622,1.2607,1.2604,1.2583,1.2568,1.2558,1.2529,1.2531,1.25,1.2503,1.2486,1.2481,1.2469,1.247,1.2468,1.2434,1.2482,1.2562,1.2569,1.2466,1.2466,1.2465,0,1.271,1.2698,1.2706,1.2698,1.2664,1.2668,1.2654,1.2632,1.2626,1.2614,1.2609,1.2597,1.259,1.2581,1.2549,1.2529,1.2555,1.2521,1.2542,1.2543,1.2549,1.2549,1.2629,1.2547,1.2547,1.2547,1.2547,0,1.2769,1.278,1.2735,1.2739,1.275,1.2713,1.2725,1.2707,1.2687,1.2687,1.265,1.2651,1.2609,1.2605,1.258,1.2586,1.2583,1.257,1.2564,1.2574,1.2575,1.257,1.2566,1.2549,1.2548,1.2548,1.2548,0,1.2844,1.2814,1.2819,1.2787,1.2779,1.2788,1.276,1.2763,1.274,1.2741,1.2738,1.2703,1.2696,1.2664,1.2649,1.2632,1.2646,1.2633,1.2653,1.2649,1.2671,1.2669,1.275,1.2758,1.2672,1.2673,1.2673,0,1.2884,1.2891,1.286,1.2857,1.2845,1.2841,1.2835,1.2799,1.2794,1.2771,1.2777,1.2767,1.2757,1.2748,1.272,1.2709,1.2695,1.2724,1.2693,1.2702,1.2694,1.2694,1.2695,1.273,1.2731,1.2732,1.2733,0,1.2957,1.2942,1.2935,1.2923,1.2916,1.2905,1.2891,1.2891,1.2851,1.2847,1.284,1.2832,1.2817,1.2808,1.2791,1.2776,1.2748,1.2743,1.2747,1.2757,1.2768,1.2762,1.2671,1.2741,1.274,1.274,1.2739,1.2739,1.3015,1.302,1.2998,1.2991,1.2977,1.2965,1.2966,1.2944,1.2937,1.2922,1.2901,1.2897,1.2875,1.2851,1.2838,1.2833,1.2817,1.2823,1.2824,1.2826,1.2831,1.2769,1.283,1.2829,1.2829,1.2829,1.2829,0,1.3086,1.307,1.3064,1.3046,1.3041,1.3015,1.2999,1.2996,1.2992,1.2975,1.2966,1.2957,1.2948,1.292,1.2907,1.2909,1.2895,1.2906,1.2906,1.2902,1.2846,1.2844,1.2917,1.2917,1.2917,1.2917,1.2917,1.2917,1.3122,1.3129,1.3111,1.3109,1.3093,1.3089,1.3081,1.307,1.3056,1.3048,1.304,1.3022,1.3,1.2985,1.2975,1.2967,1.2964,1.2979,1.2967,1.2915,1.2907,1.2898,1.2896,1.2979,1.2979,1.3023,1.3024,1.3024]}]]